Nice, France

1:46 PM CEST on April 23, 2018 (GMT +0200)
Nice-Cote d'Azur

Weather History for LFMN - April, 2013

Change the Weather History Date:

Saturday, April 27, 2013

  Actual Average Record
Temperature  
Mean Temperature 60 °F -  
Max Temperature 63 °F 67 °F 75 °F (1997)
Min Temperature 57 °F 55 °F 50 °F (2001)
Degree Days  
Heating Degree Days 5    
Growing Degree Days 10 (Base 50)    
Moisture  
Dew Point 56 °F    
Average Humidity 88    
Maximum Humidity 94    
Minimum Humidity 77    
Precipitation  
Precipitation 0.08 in 0.07 in - ()
Sea Level Pressure  
Sea Level Pressure 29.71 in    
Wind  
Wind Speed 6 mph ()    
Max Wind Speed 13 mph    
Max Gust Speed -    
Visibility 6.0 miles    
Events Rain    
Averages and records for this station are not official NWS values.
T = Trace of Precipitation, MM = Missing Value Source: Averaged Metar Reports

Daily Weather History Graph

Daily Weather History Graph

Search for Another Location

Airport or City:

Astronomy

Apr. 27, 2013 Rise Set
Actual Time 6:29 AM CEST 8:28 PM CEST
Civil Twilight 5:58 AM CEST 9:00 PM CEST
Nautical Twilight 5:20 AM CEST 9:38 PM CEST
Astronomical Twilight 4:39 AM CEST 10:20 PM CEST
Moon 10:44 PM CEST (4/27) 7:30 AM CEST (4/27)
Length of Visible Light 15h 01m
Length of Day
13h 59m
Waning Gibbous, 96% of the Moon is Illuminated
Apr 27
Waning Gibbous
May 2
Last Quarter
May 10
New
May 18
First Quarter
May 25
Full

Hourly Weather History & Observations

Time (CEST) Temp. Dew Point Humidity Pressure Visibility Wind Dir Wind Speed Gust Speed Precip Events Conditions
12:00 AM 60.8 °F 57.2 °F 88% 29.86 in 6.2 mi NNW 3.5 mph - N/A Rain Light Rain
12:30 AM 60.8 °F 57.2 °F 88% 29.86 in 6.2 mi Variable 2.3 mph - N/A   Mostly Cloudy
1:00 AM 59.0 °F 57.2 °F 94% 29.83 in 6.2 mi Calm Calm - N/A   Mostly Cloudy
1:30 AM 60.8 °F 57.2 °F 88% 29.83 in 5.0 mi NNW 3.5 mph - N/A Rain Light Rain
2:00 AM 60 °F 57 °F 87% 29.83 in 6 mi ENE 1.2 mph - - Rain Light Rain
2:00 AM 59.0 °F 57.2 °F 94% 29.83 in 5.6 mi Calm Calm - N/A   Mostly Cloudy
2:30 AM 60.8 °F 57.2 °F 88% 29.80 in 4.3 mi East 5.8 mph - N/A Rain Light Rain
3:00 AM 59.0 °F 57.2 °F 94% 29.77 in 3.1 mi SE 11.5 mph - N/A Rain Light Rain
3:30 AM 59.0 °F 57.2 °F 94% 29.77 in 5.6 mi SE 8.1 mph - N/A Rain Light Rain
4:00 AM 59.0 °F 55.4 °F 88% 29.77 in 6.2 mi SE 8.1 mph - N/A   Mostly Cloudy
4:30 AM 59.0 °F 55.4 °F 88% 29.77 in 6.2 mi ESE 5.8 mph - N/A   Mostly Cloudy
5:00 AM 59.0 °F 55.4 °F 88% 29.74 in 1.6 mi ENE 4.6 mph - N/A Rain Rain Showers
5:30 AM 59.0 °F 55.4 °F 88% 29.74 in 6.2 mi East 6.9 mph - N/A   Mostly Cloudy
6:00 AM 59.0 °F 55.4 °F 88% 29.71 in 6.2 mi East 10.4 mph - N/A   Mostly Cloudy
6:30 AM 59.0 °F 57.2 °F 94% 29.71 in 4.3 mi SSE 11.5 mph - N/A   Scattered Clouds
7:00 AM 59.0 °F 57.2 °F 94% 29.71 in 4.3 mi South 9.2 mph - N/A   Mostly Cloudy
7:30 AM 59.0 °F 57.2 °F 94% 29.71 in 4.3 mi SSE 10.4 mph - N/A   Mostly Cloudy
8:00 AM 59 °F 56 °F 88% 29.72 in 9 mi South 6.9 mph - -   Partly Cloudy
8:00 AM 59.0 °F 57.2 °F 94% 29.71 in 6.2 mi South 6.9 mph - N/A   Mostly Cloudy
8:30 AM 59.0 °F 57.2 °F 94% 29.71 in 6.2 mi SSE 8.1 mph - N/A   Mostly Cloudy
9:00 AM 59.0 °F 57.2 °F 94% 29.71 in 6.2 mi SE 9.2 mph - N/A   Mostly Cloudy
9:30 AM 59.0 °F 57.2 °F 94% 29.71 in 6.2 mi SSE 6.9 mph - N/A   Mostly Cloudy
10:00 AM 59.0 °F 55.4 °F 88% 29.71 in 5.0 mi SE 11.5 mph - N/A Rain Light Rain Showers
10:30 AM 60.8 °F 57.2 °F 88% 29.68 in 6.2 mi SE 6.9 mph - N/A   Mostly Cloudy
11:00 AM 60.8 °F 57.2 °F 88% 29.68 in 6.2 mi ESE 5.8 mph - N/A   Mostly Cloudy
11:30 AM 60.8 °F 57.2 °F 88% 29.68 in 6.2 mi SE 8.1 mph - N/A   Overcast
12:00 PM 62.6 °F 57.2 °F 82% 29.68 in 6.2 mi ESE 8.1 mph - N/A   Mostly Cloudy
12:30 PM 62.6 °F 57.2 °F 82% 29.68 in 6.2 mi SE 6.9 mph - N/A   Mostly Cloudy
1:00 PM 62.6 °F 57.2 °F 82% 29.68 in 6.2 mi SE 8.1 mph - N/A   Mostly Cloudy
1:30 PM 60.8 °F 57.2 °F 88% 29.68 in 6.2 mi SSE 8.1 mph - N/A   Mostly Cloudy
2:00 PM 62 °F 57 °F 77% 29.69 in 6 mi SE 6.9 mph - -   Partly Cloudy
2:00 PM 62.6 °F 57.2 °F 82% 29.68 in 6.2 mi SE 6.9 mph - N/A   Mostly Cloudy
2:30 PM 60.8 °F 57.2 °F 88% 29.68 in 6.2 mi SSE 9.2 mph - N/A   Mostly Cloudy
3:00 PM 62.6 °F 57.2 °F 82% 29.65 in 6.2 mi SSE 8.1 mph - N/A   Mostly Cloudy
3:30 PM 62.6 °F 57.2 °F 82% 29.65 in 6.2 mi SSE 6.9 mph - N/A   Mostly Cloudy
4:00 PM 62.6 °F 55.4 °F 77% 29.65 in 6.2 mi SSE 8.1 mph - N/A   Mostly Cloudy
4:30 PM 60.8 °F 57.2 °F 88% 29.65 in 6.2 mi South 8.1 mph - N/A   Mostly Cloudy
5:00 PM 60.8 °F 57.2 °F 88% 29.65 in 6.2 mi South 9.2 mph - N/A   Mostly Cloudy
5:30 PM 60.8 °F 57.2 °F 88% 29.65 in 6.2 mi South 9.2 mph - N/A   Mostly Cloudy
5:54 PM 60.8 °F 55.4 °F 82% 29.65 in 6.2 mi South 10.4 mph - N/A Rain Light Rain Showers
6:30 PM 60.8 °F 57.2 °F 88% 29.65 in 5.6 mi South 11.5 mph - N/A Rain Light Rain
7:00 PM 59.0 °F 55.4 °F 88% 29.65 in 5.6 mi SSW 11.5 mph - N/A Rain Light Rain
7:30 PM 59.0 °F 57.2 °F 94% 29.65 in 5.6 mi SSW 11.5 mph - N/A Rain Light Rain
8:00 PM 58 °F 55 °F 87% 29.66 in 12 mi SSW 12.7 mph - - Rain Light Rain
8:00 PM 59.0 °F 55.4 °F 88% 29.65 in 6.2 mi SW 12.7 mph - N/A Rain Light Rain
8:30 PM 59.0 °F 55.4 °F 88% 29.65 in 6.2 mi SSW 9.2 mph - N/A Rain Light Rain
9:00 PM 59.0 °F 55.4 °F 88% 29.65 in 6.2 mi SW 4.6 mph - N/A Rain Light Rain
9:30 PM 59.0 °F 55.4 °F 88% 29.68 in 6.2 mi SW 6.9 mph - N/A   Mostly Cloudy
10:00 PM 59.0 °F 53.6 °F 82% 29.68 in 6.2 mi SW 9.2 mph - N/A   Partly Cloudy
10:30 PM 57.2 °F 53.6 °F 88% 29.71 in 6.2 mi West 5.8 mph - N/A   Partly Cloudy
11:00 PM 57.2 °F 53.6 °F 88% 29.71 in 6.2 mi WSW 2.3 mph - N/A   Mostly Cloudy
11:30 PM 57.2 °F 51.8 °F 82% 29.71 in 6.2 mi Variable 3.5 mph - N/A   Mostly Cloudy